This is the latest recevied weather packets stored in our database for station/object SQ5OUZ-1. If no packets are shown the sender has not sent any weather packets the latest 10 day(s).
| Time | Temp. | Humidity | Pressure | Rain* | Wind** | Luminosity | Snow |
|---|---|---|---|---|---|---|---|
| 1777422250 | 5° C | 45% | 1025.6 hPa | - | - | - | - |
| 1777421347 | 5.56° C | 44% | 1025.4 hPa | - | - | - | - |
| 1777420444 | 6.11° C | 45% | 1025.4 hPa | - | - | - | - |
| 1777419540 | 6.11° C | 46% | 1025.4 hPa | - | - | - | - |
| 1777418637 | 6.11° C | 45% | 1025.4 hPa | - | - | - | - |
| 1777417734 | 6.11° C | 45% | 1025.4 hPa | - | - | - | - |
| 1777416831 | 6.11° C | 45% | 1025.5 hPa | - | - | - | - |
| 1777415926 | 6.11° C | 47% | 1025.5 hPa | - | - | - | - |
| 1777415023 | 6.11° C | 46% | 1025.5 hPa | - | - | - | - |
| 1777414120 | 6.11° C | 46% | 1025.6 hPa | - | - | - | - |
| 1777413217 | 5.56° C | 46% | 1025.5 hPa | - | - | - | - |
| 1777412314 | 6.11° C | 45% | 1025.5 hPa | - | - | - | - |
| 1777411410 | 6.11° C | 45% | 1025.4 hPa | - | - | - | - |
| 1777410507 | 6.11° C | 44% | 1025.4 hPa | - | - | - | - |
| 1777409604 | 6.11° C | 44% | 1025.3 hPa | - | - | - | - |
| 1777408700 | 6.67° C | 43% | 1025.2 hPa | - | - | - | - |
| 1777407797 | 6.67° C | 42% | 1025 hPa | - | - | - | - |
| 1777406894 | 6.67° C | 41% | 1025 hPa | - | - | - | - |
| 1777405990 | 6.67° C | 40% | 1024.9 hPa | - | - | - | - |
| 1777405087 | 7.22° C | 39% | 1024.8 hPa | - | - | - | - |
| 1777404184 | 7.22° C | 41% | 1024.8 hPa | - | - | - | - |
| 1777403281 | 7.22° C | 41% | 1024.7 hPa | - | - | - | - |
| 1777402377 | 7.22° C | 40% | 1024.6 hPa | - | - | - | - |
| 1777401474 | 7.78° C | 39% | 1024.6 hPa | - | - | - | - |
| 1777400571 | 7.78° C | 38% | 1024.5 hPa | - | - | - | - |
* Rain since midnight (hover to see other rain measurements)
** Current wind speed in m/s (hover to see current wind gust speed)